This is the latest recevied weather packets stored in our database for station/object WC4PEM-14. If no packets are shown the sender has not sent any weather packets the latest 10 day(s).
| Time | Temp. | Humidity | Pressure | Rain* | Wind** | Luminosity | Snow |
|---|---|---|---|---|---|---|---|
| 1777750323 | 28.33° C | 71% | 1010 hPa | 0 mm | - | - | - |
| 1777750094 | 28.33° C | 71% | 1010 hPa | 0 mm | - | - | - |
| 1777749829 | 28.89° C | 69% | 1009.9 hPa | 0 mm | - | - | - |
| 1777749794 | 28.33° C | 71% | 1009.9 hPa | 0 mm | - | - | - |
| 1777749494 | 28.89° C | 70% | 1009.7 hPa | 0 mm | - | - | - |
| 1777749194 | 28.89° C | 69% | 1009.9 hPa | 0 mm | - | - | - |
| 1777749152 | 28.89° C | 68% | 1010.2 hPa | 0 mm | - | - | - |
| 1777748894 | 28.89° C | 68% | 1010.2 hPa | 0 mm | - | - | - |
| 1777748712 | 28.89° C | 67% | 1010.1 hPa | 0 mm | - | - | - |
| 1777748594 | 28.89° C | 67% | 1010.1 hPa | 0 mm | - | - | - |
| 1777748299 | 29.44° C | 66% | 1010.2 hPa | 0 mm | - | - | - |
| 1777748294 | 28.89° C | 67% | 1010.1 hPa | 0 mm | - | - | - |
| 1777747994 | 29.44° C | 66% | 1010.2 hPa | 0 mm | - | - | - |
| 1777747872 | 29.44° C | 66% | 1010.1 hPa | 0 mm | - | - | - |
| 1777747694 | 29.44° C | 66% | 1010.1 hPa | 0 mm | - | - | - |
| 1777747609 | 29.44° C | 65% | 1009.9 hPa | 0 mm | - | - | - |
| 1777747395 | 29.44° C | 65% | 1009.9 hPa | 0 mm | - | - | - |
| 1777747301 | 29.44° C | 64% | 1010.1 hPa | 0 mm | - | - | - |
| 1777747095 | 29.44° C | 64% | 1010.1 hPa | 0 mm | - | - | - |
| 1777746911 | 30° C | 64% | 1010.3 hPa | 0 mm | - | - | - |
| 1777746795 | 30° C | 64% | 1010.3 hPa | 0 mm | - | - | - |
| 1777746703 | 30° C | 64% | 1010.4 hPa | 0 mm | - | - | - |
| 1777746494 | 30° C | 64% | 1010.4 hPa | 0 mm | - | - | - |
| 1777746448 | 30° C | 65% | 1010.3 hPa | 0 mm | - | - | - |
| 1777746228 | 30° C | 64% | 1010.2 hPa | 0 mm | - | - | - |
* Rain latest hour (hover to see other rain measurements)
** Current wind speed in m/s (hover to see current wind gust speed)